Regional Weather Roundup
Issued by NWS

Home | Current Version | Previous Version | Text Only | Print | Product List | Glossary On
Versions: 1 2 3 4 5 6 7 8 9 10 11 12 13 14 15 16 17 18 19 20 21 22 23 24 25 26 27 28 29 30 31 32 33 34 35 36 37 38 39 40 41 42 43 44 45 46 47 48 49 50
000
ASUS43 KLMK 301910
RWRKY
KENTUCKY REGIONAL WEATHER ROUNDUP
NATIONAL WEATHER SERVICE LOUISVILLE KY
300 PM EDT WED JUL 30 2014

NOTE "FAIR" INDICATES FEW OR NO CLOUDS BELOW 12,000 FEET
WITH NO SIGNIFICANT WEATHER AND/OR OBSTRUCTIONS TO VISIBILITY.

KYZ001>023-026-027-061>063-070>075-302000-
WESTERN AND SOUTH CENTRAL KENTUCKY

CITY           SKY/WX    TMP DP  RH WIND       PRES   REMARKS
PADUCAH        CLOUDY    80  58  46 W7        30.10S
HENDERSON      PTSUNNY   82  61  47 NW12      30.07F
OWENSBORO      MOSUNNY   82  55  39 VRB6      30.08F
HOPKINSVILLE   PTSUNNY   81  55  40 SW8       30.10F
BOWLING GREEN  MOSUNNY   80  52  37 N5        30.09F
GLASGOW        PTSUNNY   81  51  36 SW5       30.10S
$$

KYZ024-025-028>034-038-045-046-053-302000-
NORTH CENTRAL KENTUCKY

CITY           SKY/WX    TMP DP  RH WIND       PRES   REMARKS
LOUISVILLE/SDF MOSUNNY   82  56  40 W7        30.07F
LOUISVILLE/LOU MOSUNNY   80  55  42 VRB6      30.08S
FORT KNOX      MOSUNNY   79  60  51 W10       30.08F
$$

KYZ035>037-039>044-047>052-055>060-089>105-302000-
NORTHEAST KENTUCKY

CITY           SKY/WX    TMP DP  RH WIND       PRES   REMARKS
LEXINGTON      MOSUNNY   78  57  48 W7        30.09F
COVINGTON      MOSUNNY   78  57  48 W10       30.05F
FRANKFORT      MOSUNNY   80  57  45 SW7       30.07F
$$

KYZ054-064>069-076>088-106>120-302000-
SOUTHEAST KENTUCKY

CITY           SKY/WX    TMP DP  RH WIND       PRES   REMARKS
JACKSON        MOSUNNY   76  60  57 VRB3      30.11F
LONDON         PTSUNNY   78  58  49 VRB5      30.11F
SOMERSET       PTSUNNY   77  57  50 S5        30.11F
MIDDLESBORO    MOSUNNY   77  57  49 N6        30.12S
MONTICELLO     CLEAR     78  58  50 S5        30.12F
$$



USA.gov is the U.S. government's official web portal to all federal, state and local government web resources and services.